KINEIS-2B

Last updated on Wed Oct 22 2025 00:02:42 GMT+0000 (Coordinated Universal Time)

1 62934U 25028G 25294.37069626 .00002856 00000+0 45701-3 0 9992 2 62934 98.0013 346.2602 0003668 175.2518 184.8725 14.72541501 37502
UTC large
Height (km)
Speed (km/s)
/
Latitude / Longitude
Inclination (degrees)
Orbital Period (minutes)
Azimuth
Elevation
Range (km)
Doppler Factor

Next 0 passes for location: London (51.5072 / 0.1276)

Sorry there are no passes over London.